Montreal, Quebec

6:09 AM EDT on March 25, 2017 (GMT -0400)
Montreal International (Dorval)

Weather History for CYUL - November, 2012

Change the Weather History Date:

Friday, November 23, 2012

  Actual Average Record
Temperature  
Mean Temperature 44 °F -  
Max Temperature 54 °F 30 °F 59 °F (1999)
Min Temperature 33 °F 16 °F 14 °F (2008)
Degree Days  
Heating Degree Days 22    
Moisture  
Dew Point 35 °F    
Average Humidity 68    
Maximum Humidity 87    
Minimum Humidity 39    
Precipitation  
Precipitation 0.12 in 0.11 in - ()
Sea Level Pressure  
Sea Level Pressure 29.72 in    
Wind  
Wind Speed 10 mph ()    
Max Wind Speed 24 mph    
Max Gust Speed 36 mph    
Visibility 14.3 miles    
Events Rain    
Averages and records for this station are not official NWS values.
T = Trace of Precipitation, MM = Missing Value Source: Averaged Metar Reports

Daily Weather History Graph

Daily Weather History Graph

Search for Another Location

Airport or City:

Trip Planner

Search our weather history database for the weather conditions in past years. The results will help you decide how hot, cold, wet, or windy it might be!

Date:

Astronomy

Nov. 23, 2012 Rise Set
Actual Time 7:05 AM EST 4:17 PM EST
Civil Twilight 6:32 AM EST 4:50 PM EST
Nautical Twilight 5:55 AM EST 5:26 PM EST
Astronomical Twilight 5:20 AM EST 6:02 PM EST
Moon 1:41 PM EST (11/23) 2:09 AM EST (11/23)
Length of Visible Light 10h 17m
Length of Day
9h 12m
Waxing Gibbous, 79% of the Moon is Illuminated
Nov 23
Waxing Gibbous
Nov 28
Full
Dec 6
Last Quarter
Dec 13
New
Dec 20
First Quarter

Hourly Weather History & Observations

Time (EST) Temp. Windchill Dew Point Humidity Pressure Visibility Wind Dir Wind Speed Gust Speed Precip Events Conditions
12:00 AM 41.0 °F 35.2 °F 30.2 °F 65% 29.98 in 15.0 mi SSE 9.2 mph - N/A   Clear
1:00 AM 37 °F - 30 °F 68% 29.95 in 15 mi South 10.4 mph - -   Clear
1:00 AM 37.4 °F 30.3 °F 30.2 °F 75% 29.95 in 15.0 mi South 10.4 mph - N/A   Partly Cloudy
2:00 AM 37.4 °F 32.1 °F 30.2 °F 75% 29.95 in 15.0 mi South 6.9 mph - N/A   Partly Cloudy
3:00 AM 37.4 °F 34.9 °F 28.4 °F 70% 29.93 in 15.0 mi ESE 3.5 mph - N/A   Partly Cloudy
4:00 AM 33.8 °F 27.7 °F 28.4 °F 81% 29.90 in 15.0 mi SE 6.9 mph - N/A   Scattered Clouds
5:00 AM 37.4 °F 32.1 °F 28.4 °F 70% 29.87 in 15.0 mi SSE 6.9 mph - N/A   Mostly Cloudy
6:00 AM 39.2 °F 33.6 °F 28.4 °F 65% 29.84 in 15.0 mi SE 8.1 mph - N/A   Mostly Cloudy
7:00 AM 39 °F - 29 °F 58% 29.82 in 28 mi SE 6.9 mph - -   Clear
7:00 AM 39.2 °F 33.6 °F 30.2 °F 70% 29.82 in 30.0 mi SE 8.1 mph - N/A   Mostly Cloudy
8:00 AM 39.2 °F 32.5 °F 30.2 °F 70% 29.80 in 30.0 mi SE 10.4 mph - N/A   Overcast
9:00 AM 42.8 °F 36.2 °F 30.2 °F 61% 29.76 in 30.0 mi SSE 12.7 mph - N/A   Mostly Cloudy
10:00 AM 46.4 °F 41.5 °F 32.0 °F 57% 29.74 in 15.0 mi SE 10.4 mph - N/A   Mostly Cloudy
11:00 AM 50.0 °F - 32.0 °F 50% 29.70 in 15.0 mi SSE 15.0 mph - N/A   Mostly Cloudy
12:00 PM 53.6 °F - 35.6 °F 51% 29.64 in 15.0 mi SE 13.8 mph - N/A   Mostly Cloudy
1:00 PM 52 °F - 34 °F 39% 29.60 in 28 mi SE 16.1 mph - -   Overcast
1:00 PM 51.8 °F - 33.8 °F 50% 29.60 in 30.0 mi SE 15.0 mph - N/A   Overcast
2:00 PM 50.0 °F - 35.6 °F 58% 29.58 in 30.0 mi SE 15.0 mph - N/A   Overcast
2:30 PM 50.0 °F - - N/A% - 15.0 mi South 9.2 mph - N/A Rain Light Rain
3:00 PM 50.0 °F - 37.4 °F 62% 29.60 in 10.0 mi SSW 10.4 mph - N/A Rain Light Rain
4:00 PM 48.2 °F - 42.8 °F 82% 29.61 in 8.0 mi SW 18.4 mph - N/A Rain Light Rain
5:00 PM 48.2 °F - 44.6 °F 87% 29.60 in 10.0 mi SSW 13.8 mph - N/A Rain Light Rain
6:00 PM 48.2 °F - 44.6 °F 87% 29.58 in 15.0 mi South 11.5 mph - N/A   Overcast
7:00 PM 48 °F - 44 °F 81% 29.57 in 15 mi South 13.8 mph - -   Partly Cloudy
7:00 PM 48.2 °F - 44.6 °F 87% 29.57 in 15.0 mi South 12.7 mph - N/A   Mostly Cloudy
8:00 PM 50.0 °F - 41.0 °F 71% 29.58 in 15.0 mi SW 24.2 mph 35.7 mph N/A   Overcast
9:00 PM 48.2 °F - 39.2 °F 71% 29.58 in 15.0 mi SW 24.2 mph 29.9 mph N/A   Overcast
9:47 PM 48.2 °F - - N/A% - 15.0 mi SW 15.0 mph - N/A Rain Light Rain Showers
10:00 PM 48.2 °F - 37.4 °F 66% 29.57 in 15.0 mi SW 16.1 mph - N/A Rain Light Rain Showers
10:30 PM 46.4 °F 39.2 °F - N/A% - 15.0 mi SW 18.4 mph - N/A   Overcast
11:00 PM 46.4 °F 39.8 °F 35.6 °F 66% 29.56 in 15.0 mi SW 16.1 mph - N/A   Overcast